This demonstration page uses our WeatherBlox Daily Observations layout. Learn more.

Left ArrowRight Arrow

47.50024, -111.30081

Hourly Observations for October 20, 2019

Temp ( °F °C ) Dew Point ( °F °C ) Humidity (%) Winds ( mph kmh ) Pressure ( in mb ) Visibility ( mi km ) Precip ( " mm )
12:53 am 00:53 Cloudy with Light Rain 37 2.8 33 0.6 86 86 NW 5 7 29.72 1007 10 16 0.00 0.00
1:20 am 01:20 Cloudy 37 2.8 33 0.6 86 86 WNW 3 6 29.76 1008 10 16 0.00 0.00
1:27 am 01:27 Cloudy with Light Rain 37 2.8 33 0.6 86 86 WNW 5 7 29.77 1008 10 16 0.00 0.00
1:53 am 01:53 Cloudy 37 2.8 34 1.1 89 89 WNW 3 6 29.75 1008 10 16 0.00 0.00
2:53 am 02:53 Cloudy 36 2.2 33 0.6 89 89 WNW 6 9 29.80 1009 10 16 0.00 0.00
3:30 am 03:30 Cloudy with Light Rain 36 2.2 33 0.6 89 89 W 5 7 29.84 1010 10 16 0.00 0.00
3:38 am 03:38 Cloudy with Light Rain 36 2.2 33 0.6 89 89 W 5 7 29.85 1011 10 16 0.00 0.00
3:53 am 03:53 Cloudy with Light Rain 36 2.2 33 0.6 89 89 W 5 7 29.82 1010 10 16 0.01 0.25
4:53 am 04:53 Cloudy 36 2.2 34 1.1 93 93 WSW 7 11 29.85 1011 10 16 0.00 0.00
5:53 am 05:53 Mostly Clear 34 1.1 31 -0.6 89 89 W 8 13 29.90 1013 10 16 0.00 0.00
6:53 am 06:53 Mostly Cloudy 34 1.1 30 -1.1 85 85 W 7 11 29.93 1014 10 16 0.00 0.00
7:53 am 07:53 Cloudy 34 1.1 31 -0.6 89 89 WSW 8 13 29.96 1015 10 16 0.00 0.00
8:53 am 08:53 Cloudy 36 2.2 33 0.6 89 89 SSW 10 17 29.98 1015 10 16 0.00 0.00
9:53 am 09:53 Cloudy 38 3.3 34 1.1 86 86 SW 9 15 29.99 1016 10 16 0.00 0.00
10:53 am 10:53 Cloudy 41 5 34 1.1 76 76 SW 8 13 30.01 1016 10 16 0.00 0.00
11:53 am 11:53 Mostly Cloudy 45 7.2 32 0 61 61 SW 10 17 29.99 1016 10 16 0.00 0.00
12:53 pm 12:53 Mostly Cloudy 50 10 28 -2.2 43 43 W 16 26 29.96 1015 10 16 0.00 0.00
1:53 pm 13:53 Partly Cloudy 50 10 22 -5.6 33 33 W 18 30 29.94 1014 10 16 0.00 0.00
2:53 pm 14:53 Mostly Cloudy 50 10 20 -6.7 30 30 WSW 17 28 29.94 1014 10 16 0.00 0.00
3:53 pm 15:53 Cloudy 49 9.4 19 -7.2 31 31 WSW 14 22 29.94 1014 10 16 0.00 0.00
4:53 pm 16:53 Partly Cloudy 47 8.3 25 -3.9 42 42 SW 20 31 29.95 1014 10 16 0.00 0.00
5:53 pm 17:53 Sunny 42 5.6 25 -3.9 51 51 SW 14 22 29.97 1015 10 16 0.00 0.00
6:53 pm 18:53 Partly Cloudy 38 3.3 25 -3.9 60 60 SW 13 20 29.98 1015 10 16 0.00 0.00
7:53 pm 19:53 Clear 39 3.9 23 -5 53 53 WSW 16 26 29.97 1015 10 16 0.00 0.00
8:53 pm 20:53 Clear 35 1.7 23 -5 61 61 SSW 12 19 29.98 1015 10 16 0.00 0.00
9:53 pm 21:53 Clear 33 0.6 22 -5.6 64 64 SW 13 20 29.97 1015 10 16 0.00 0.00
10:53 pm 22:53 Clear 33 0.6 21 -6.1 61 61 SSW 9 15 29.97 1015 10 16 0.00 0.00
11:53 pm 23:53 Clear 31 -0.6 21 -6.1 67 67 SW 10 17 29.97 1015 10 16 0.00 0.00

Powered by AerisWeather